Zurück zum Katalog

STARLINK-5340

AktivKommunikationVLEO
NORAD 56506·PAYLOAD·🇺🇸 United States

Gestartet May 14, 2023 von Cape Canaveral Space Force Station

Loading…

Nächste Überflüge (nächste 24 Stunden)

TLE

AktuellSource: CelesTrak SupGP

Epoche: Sep 14, 2026, 14:06 UTC

1 56506C 23065D   26257.58798611 -.00052180  00000+0 -18901-2 0  2570
2 56506  43.0006 214.4629 0001574 263.7651 263.4756 15.27601357    13

Verfolge STARLINK-5340 in Echtzeit mit AllMySat

Download on the App Store